Regional Weather Roundup
Issued by NWS

Home | Current Version | Previous Version | Text Only | Print | Product List | Glossary Off
Versions: 1 2 3 4 5 6 7 8 9 10 11 12 13 14 15 16 17 18 19 20 21 22 23 24 25 26 27 28 29 30 31 32 33 34 35 36 37 38 39 40 41 42 43 44 45 46 47 48 49 50

000
ASUS43 KTOP 241008
RWRKS

WEATHER ROUNDUP FOR KANSAS
NATIONAL WEATHER SERVICE GOODLAND KS
500 AM CDT MON JUL 24 2017

NOTE:  "FAIR" INDICATES FEW OR NO CLOUDS BELOW 12,000 FEET WITH NO
SIGNIFICANT WEATHER AND/OR OBSTRUCTIONS TO VISIBILITY.

KSZ001>006-013>018-027>032-041>047-241100-
NORTHWEST KANSAS

CITY           SKY/WX    TMP DP  RH WIND       PRES   REMARKS
GOODLAND       CLEAR     69  59  70 S9        30.07S
HAYS             N/A     68  61  78 E5        30.00S
HILL CITY      CLEAR     67  66  97 CALM      30.01S FOG
RUSSELL        CLEAR     69  64  84 E5        29.98S
$$

KSZ061>065-074>080-084>089-241100-
SOUTHWEST KANSAS

CITY           SKY/WX    TMP DP  RH WIND       PRES   REMARKS
DODGE CITY     CLEAR     69  63  81 SW5       30.03S
ELKHART          N/A     67  54  63 S7          N/A
GARDEN CITY    CLEAR     67  62  84 S3        30.04S
LIBERAL        CLEAR     69  64  84 CALM      30.04S
PRATT          CLEAR     67  63  85 CALM      30.00S
$$

KSZ066>073-081>083-090>101-241100-
SOUTHEAST KANSAS

CITY           SKY/WX    TMP DP  RH WIND       PRES   REMARKS
CHANUTE        CLEAR     71  70  96 NW3       29.95S
COFFEYVILLE    CLEAR     72  71  97 SE5       29.94S
HUTCHINSON     CLEAR     68  66  93 CALM      29.97R
MEDICINE LODGE   N/A     69  65  86 CALM      29.97S
NEWTON         CLEAR     73  69  87 S3        29.98S
PARSONS        CLEAR     68  68 100 CALM      29.95S
WICHITA INTL   CLEAR     73  70  90 S3        29.96S
WICHITA JABRA  CLEAR     71  69  93 CALM      29.96S
WICHITA MCCONL CLEAR     73  67  82 SW5       29.96S
WINFIELD       CLEAR     72  67  84 CALM      29.96F
$$

KSZ007>012-019>026-033>040-048>060-102>105-241100-
NORTHEAST KANSAS

CITY           SKY/WX    TMP DP  RH WIND       PRES   REMARKS
CONCORDIA      CLEAR     68  67  96 E5        29.99S
EMPORIA        CLEAR     73  71  93 NE6       29.96S
LAWRENCE       CLEAR     73  67  81 NE5       29.96S
MANHATTAN      CLEAR     73  67  81 NE5       29.97S
MARYSVILLE     CLEAR     66  63  88 CALM      30.00R
OLATHE IND     CLEAR     73  66  78 E5        29.97R
OLATHE EXE     PTCLDY    73  66  78 NE9       29.97R
SALINA         CLEAR     74  69  85 CALM      29.98R
TOPEKA BILLARD CLEAR     73  69  87 NE5       29.96S
TOPEKA FORBES  CLEAR     74  69  85 NE3       29.97S
$$




USA.gov is the U.S. government's official web portal to all federal, state and local government web resources and services.